Location: Banios
(43.0451°N, 0.2335°E)
Time: 04:43:23
(UTC+00:00)

COSMO-SKYMED 1 - Pass Details

Date: 25 January 2021
Orbit: 621 x 623 km, 97.9° (Epoch: 26 February)

Event Time Altitude Azimuth Distance (km) Brightness Sun altitude
Rises 04:28:44 0° 143° (SE) 2,892 6.4 -31.4°
Reaches altitude 10° 04:31:03 10° 133° (SE) 1,991 5.6 -31.0°
Maximum altitude 04:34:57 33° 70° (ENE) 1,044 4.1 -30.2°
Enters shadow 04:35:51 30° 44° (NE) 1,117 4.2 -30.1°
